This is the latest recevied weather packets stored in our database for station/object KC8PTQ. If no packets are shown the sender has not sent any weather packets the latest 10 day(s).
| Time | Temp. | Humidity | Pressure | Rain* | Wind** | Luminosity | Snow |
|---|---|---|---|---|---|---|---|
| 1778158617 | 7.78° C | 79% | 1014.6 hPa | 0 mm | - | 185 W/m² | - |
| 1778158314 | 7.78° C | 80% | 1014.5 hPa | 0 mm | - | 108 W/m² | - |
| 1778158010 | 7.78° C | 78% | 1014.7 hPa | 0 mm | - | 72 W/m² | - |
| 1778157708 | 7.78° C | 79% | 1014.5 hPa | 0 mm | - | 83 W/m² | - |
| 1778157406 | 7.78° C | 80% | 1014.4 hPa | 0 mm | - | 102 W/m² | - |
| 1778157102 | 7.22° C | 80% | 1014.5 hPa | 0 mm | - | 85 W/m² | - |
| 1778156798 | 7.22° C | 83% | 1014.4 hPa | 0 mm | - | 91 W/m² | - |
| 1778156493 | 7.22° C | 86% | 1014.4 hPa | 0 mm | - | 71 W/m² | - |
| 1778156190 | 6.67° C | 87% | 1014.7 hPa | 0 mm | - | 61 W/m² | - |
| 1778155886 | 6.11° C | 92% | 1014.3 hPa | 0 mm | - | 53 W/m² | - |
| 1778155583 | 5.56° C | 98% | 1014.4 hPa | 0 mm | - | 51 W/m² | - |
| 1778155279 | 5° C | 99% | 1014 hPa | 0 mm | - | 49 W/m² | - |
| 1778154975 | 5° C | 99% | 1014.3 hPa | 0 mm | - | 38 W/m² | - |
| 1778154671 | 4.44° C | 99% | 1014.5 hPa | 0 mm | - | 35 W/m² | - |
| 1778154367 | 4.44° C | 99% | 1014.4 hPa | 0 mm | - | 36 W/m² | - |
| 1778154065 | 3.89° C | 99% | 1014.6 hPa | 0 mm | - | 28 W/m² | - |
| 1778153761 | 3.89° C | 99% | 1014.3 hPa | 0 mm | - | 25 W/m² | - |
| 1778153459 | 3.89° C | 99% | 1014.4 hPa | 0 mm | - | 22 W/m² | - |
| 1778153157 | 3.89° C | 99% | 1014.2 hPa | 0 mm | - | 22 W/m² | - |
| 1778152853 | 3.33° C | 99% | 1014.1 hPa | 0 mm | - | 20 W/m² | - |
| 1778152550 | 3.33° C | 99% | 1014.2 hPa | 0 mm | - | 19 W/m² | - |
| 1778152246 | 3.33° C | 99% | 1014.2 hPa | 0 mm | - | 18 W/m² | - |
| 1778151943 | 2.78° C | 99% | 1014.1 hPa | 0 mm | - | 16 W/m² | - |
| 1778151640 | 2.78° C | 99% | 1014 hPa | 0 mm | - | 15 W/m² | - |
| 1778151337 | 2.78° C | 99% | 1014.2 hPa | 0 mm | - | 12 W/m² | - |
* Rain latest hour (hover to see other rain measurements)
** Current wind speed in m/s (hover to see current wind gust speed)